Cloud_Cover
98 100 100 100 100 100 100 100 100 98 95 72 18 81 92 100 100 100 100 100 100 100 100 100 100 100 97 100 100 99 99 91 81 99 100 99 37 100 93 100 27 100 100 100 100 21 88 100 99
52 99 100 100 100 100 86 100 100 55 4 3 13 39 92 94 84 100 100 100 100 100 100 100 97 24 18 100 100 100 24 73 100 18 76 100 80 100 99 76 92 98 100 84 91 44 100 100 98
97 23 29 98 100 59 21 27 0 0 0 0 0 3 24 82 100 6 22 82 100 100 100 100 94 100 86 58 100 40 84 95 96 100 100 100 34 98 100 92 95 100 92 77 84 31 100 89 93
91 69 100 100 6 4 46 0 0 0 0 0 0 0 0 0 73 10 2 5 6 11 56 100 100 100 100 100 100 69 100 100 100 100 100 100 100 100 98 100 100 100 93 99 8 30 100 100 100
5 11 28 73 99 4 4 0 0 0 0 0 0 0 0 0 0 0 0 1 9 2 3 1 86 61 17 100 100 68 100 100 100 100 100 100 99 90 89 100 99 74 49 55 72 69 100 100 100
5 25 46 95 53 3 0 0 5 0 0 0 0 0 0 0 0 0 0 8 10 0 0 0 2 11 3 11 83 100 100 100 100 100 100 100 100 99 63 100 98 21 5 32 93 100 100 94 90
62 6 5 4 4 0 0 0 0 0 0 0 0 0 0 0 0 0 0 7 0 0 0 0 11 76 26 37 40 100 100 100 100 100 100 100 95 92 100 100 99 34 90 100 100 87 6 45 38
74 100 5 5 0 2 4 2 0 0 0 0 0 0 14 0 0 0 0 0 0 0 0 0 0 25 76 37 52 87 100 100 100 100 100 100 100 97 100 100 98 98 97 100 8 5 100 7 100
89 34 4 0 0 0 0 0 0 0 0 0 0 1 0 0 1 3 30 27 6 3 0 1 0 0 42 17 35 90 100 100 100 100 100 100 100 100 100 96 100 100 97 5 10 82 100 68 100
59 9 5 6 27 7 4 1 0 0 0 0 0 5 7 5 43 4 28 41 31 4 4 5 2 5 5 26 8 28 93 100 100 100 100 100 100 100 34 80 81 100 99 83 100 100 39 6 7
100 100 94 6 4 4 4 0 0 0 0 0 0 2 5 7 30 16 0 3 3 4 5 5 5 5 5 5 20 9 88 100 100 100 100 95 84 88 88 60 100 100 87 100 17 5 20 5 5
100 100 50 5 57 2 0 0 0 0 0 0 0 0 27 11 5 5 5 5 5 5 6 5 5 5 8 79 6 28 5 100 100 100 100 99 95 100 96 100 97 100 100 100 94 5 100 100 100
98 57 93 5 3 0 0 0 0 0 0 0 0 0 0 0 0 3 5 5 4 12 47 13 66 5 5 34 51 29 37 59 100 100 100 100 100 100 100 96 70 38 52 76 23 18 100 90 98
64 94 100 12 55 0 16 4 0 0 0 0 0 0 0 0 0 3 3 4 5 5 96 90 100 34 5 18 9 27 38 82 100 100 100 100 100 92 6 14 97 90 100 6 5 84 100 100 52
56 33 17 100 86 3 0 0 0 0 0 0 0 0 0 0 0 0 0 0 5 38 46 100 100 63 42 83 74 45 84 96 100 100 100 100 62 21 44 5 63 50 95 18 6 94 21 22 66
85 50 99 100 17 29 0 0 0 0 0 0 0 0 0 3 10 0 0 0 18 62 27 100 100 100 100 100 96 83 100 98 100 100 100 100 94 100 88 81 92 69 54 100 67 48 35 66 65
99 49 49 100 86 71 3 8 0 0 1 0 0 0 0 0 0 0 0 0 1 83 16 99 100 94 100 89 100 100 100 100 100 100 100 100 100 96 97 95 92 78 76 99 43 52 14 40 100
76 100 51 99 100 69 4 5 15 1 5 0 0 3 0 0 0 0 0 0 4 14 52 6 100 100 98 87 100 100 100 100 100 100 100 100 100 100 84 100 100 68 83 96 92 23 96 100 99
100 80 92 87 100 100 78 10 31 98 1 0 6 17 5 0 0 0 0 0 0 2 28 5 56 100 95 100 100 100 100 73 100 100 100 100 100 100 100 100 100 17 37 100 79 24 24 68 7
39 31 53 100 100 100 100 100 11 46 51 2 3 8 22 45 2 0 0 0 0 0 79 52 89 100 100 100 100 100 100 100 100 100 100 100 86 33 92 97 68 13 10 100 33 77 96 97 36
71 58 100 100 100 100 100 100 68 99 8 0 0 1 4 1 4 3 1 0 0 0 12 100 34 100 100 100 98 100 100 100 100 100 100 100 92 64 94 70 44 5 5 12 84 21 5 56 5
6 5 88 100 100 100 100 84 5 52 8 4 12 23 1 0 3 0 3 0 0 0 0 88 26 27 100 100 100 100 100 100 100 100 100 100 80 26 72 5 5 5 9 66 5 6 4 5 31
3 0 43 98 37 91 84 72 98 6 0 1 3 0 0 0 0 0 0 0 0 0 0 58 63 0 4 36 100 100 100 99 97 100 100 100 100 100 100 20 7 93 55 58 3 0 4 0 4
0 5 100 100 100 42 83 96 6 5 0 0 0 0 26 0 0 0 0 0 0 0 0 0 7 0 0 0 30 56 100 100 100 100 100 99 100 86 27 5 9 28 47 5 3 5 3 4 0
1 7 67 76 45 65 100 26 0 4 0 0 0 0 0 0 0 0 0 0 0 0 0 0 0 0 0 0 0 26 5 63 34 100 77 5 20 25 5 3 84 69 52 44 63 42 40 9 2
75 73 5 2 68 96 6 0 0 0 0 0 0 0 0 0 0 0 0 0 0 0 0 0 0 0 0 0 0 0 41 7 18 8 1 0 0 4 39 5 45 85 100 100 100 94 5 5 5
22 100 26 44 7 5 95 8 0 0 0 0 0 0 0 0 0 0 0 0 0 0 0 0 0 0 0 0 0 0 0 1 5 28 32 26 2 6 81 100 100 100 100 100 100 100 100 100 100
64 14 0 9 79 28 80 1 0 0 0 0 0 0 0 0 0 0 0 0 0 0 0 0 0 0 1 3 27 2 0 2 0 0 0 1 80 91 60 100 100 100 100 100 100 100 100 100 100
97 13 58 100 100 91 31 24 44 0 0 0 4 5 1 0 0 0 0 0 0 0 0 0 0 0 1 97 100 100 95 70 55 2 54 28 7 22 99 100 100 100 100 100 100 100 100 100 100
100 99 74 49 100 5 49 100 63 0 2 2 5 0 0 0 0 0 0 0 0 0 0 0 0 0 2 98 100 100 100 100 100 100 98 100 100 100 100 100 100 99 100 100 100 100 100 100 100